Date String (YYYY-MM-DD hh:mm:ss) UTC,Instrument flags,Ambient pressure (hPa),Sample flow (lpm),Bypass flow (lpm),Sample temperature (°C),Ambient temperature (°C),ASC tube jacket temperature (°C),LED temperature (°C),Box temperature (°C),Sample RH (%),Span deviation,Mass concentration (μg/m³),Mass concentration (μg/m³),Mass concentration (μg/m³)
DateTimeUTC,F1_M11,P_M11,Q1_M11,Q2_M11,T1_M11,T2_M11,T3_M11,T4_M11,T5_M11,U1_M11,ZSPAN_M11,X0_M11,X2_M11,X1_M11
2022-09-21 05:00:00,,0829.3,5.01,0.00,29.6,27.6,00.0,38.4,31.4,18.6,0000.0,0009.80,0003.24,0002.45
2022-09-21 05:01:00,,0829.3,5.00,0.00,29.6,27.8,00.0,38.4,31.4,18.8,0000.0,0009.76,0003.28,0002.46
2022-09-21 05:02:00,,0829.4,4.99,0.00,29.7,28.0,00.0,38.4,31.5,18.9,0000.0,0009.79,0003.32,0002.48
2022-09-21 05:03:00,,0829.5,5.01,0.00,29.7,28.2,00.0,38.4,31.5,19.3,0000.0,0009.66,0003.33,0002.48
2022-09-21 05:04:00,,0829.5,4.99,0.00,29.7,28.3,00.0,38.4,31.6,19.5,0000.0,0009.94,0003.35,0002.49
2022-09-21 05:05:00,,0829.5,5.01,0.00,29.7,28.4,00.0,38.4,31.6,19.8,0000.0,0010.17,0003.37,0002.49
2022-09-21 05:06:00,,0829.5,5.00,0.00,29.7,28.5,00.0,38.4,31.6,19.9,0000.0,0010.29,0003.35,0002.49
2022-09-21 05:07:00,,0829.5,4.99,0.00,29.8,28.6,00.0,38.4,31.7,19.8,0000.0,0009.71,0003.35,0002.48
2022-09-21 05:08:00,,0829.5,4.99,0.00,29.8,28.7,00.0,38.5,31.7,19.8,0000.0,0009.33,0003.35,0002.49
2022-09-21 05:09:00,,0829.5,5.02,0.00,29.9,28.8,00.0,38.5,31.8,19.9,0000.0,0008.99,0003.35,0002.50
2022-09-21 05:10:00,,0829.5,4.99,0.00,29.9,28.8,00.0,38.5,31.8,19.8,0000.0,0008.58,0003.32,0002.51
2022-09-21 05:11:00,,0829.4,4.99,0.00,29.9,28.9,00.0,38.5,31.9,19.9,0000.0,0008.88,0003.32,0002.54
2022-09-21 05:12:00,,0829.5,4.99,0.00,30.0,28.8,00.0,38.6,31.9,19.8,0000.0,0008.88,0003.31,0002.54
2022-09-21 05:13:00,,0829.5,5.00,0.00,30.0,27.6,00.0,38.5,31.9,19.9,0000.0,0009.13,0003.28,0002.52
2022-09-21 05:14:00,,0829.4,4.99,0.00,29.9,26.9,00.0,38.5,31.8,20.1,0000.0,0009.51,0003.26,0002.52
2022-09-21 05:15:00,,0829.3,5.00,0.00,29.9,27.0,00.0,38.5,31.6,20.3,0000.0,0009.15,0003.23,0002.51
2022-09-21 05:16:00,,0829.4,4.99,0.00,29.8,27.2,00.0,38.5,31.5,20.4,0000.0,0008.88,0003.19,0002.49
2022-09-21 05:17:00,,0829.5,5.01,0.00,29.8,27.5,00.0,38.5,31.5,20.5,0000.0,0008.15,0003.18,0002.48
2022-09-21 05:18:00,,0829.5,4.98,0.00,29.8,27.8,00.0,38.5,31.5,20.5,0000.0,0008.32,0003.19,0002.46
2022-09-21 05:19:00,,0829.5,5.01,0.00,29.8,28.1,00.0,38.5,31.6,20.7,0000.0,0008.53,0003.20,0002.45
2022-09-21 05:20:00,,0829.5,4.99,0.00,29.8,28.3,00.0,38.5,31.6,20.7,0000.0,0008.49,0003.18,0002.43
2022-09-21 05:21:00,,0829.5,5.01,0.00,29.8,28.4,00.0,38.5,31.7,20.8,0000.0,0008.47,0003.16,0002.41
2022-09-21 05:22:00,,0829.5,4.99,0.00,29.8,28.5,00.0,38.5,31.7,20.9,0000.0,0008.05,0003.14,0002.40
2022-09-21 05:23:00,,0829.5,4.99,0.00,29.9,28.6,00.0,38.5,31.7,21.0,0000.0,0008.12,0003.15,0002.38
2022-09-21 05:24:00,,0829.5,5.01,0.00,29.9,28.7,00.0,38.5,31.8,21.0,0000.0,0008.16,0003.13,0002.37
2022-09-21 05:25:00,,0829.5,4.99,0.00,29.9,28.8,00.0,38.6,31.8,21.1,0000.0,0007.03,0003.11,0002.36
2022-09-21 05:26:00,,0829.5,4.99,0.00,29.9,28.9,00.0,38.6,31.9,21.1,0000.0,0006.74,0003.07,0002.36
2022-09-21 05:27:00,,0829.5,5.00,0.00,30.0,28.9,00.0,38.6,31.9,21.1,0000.0,0007.74,0003.06,0002.34
2022-09-21 05:28:00,,0829.6,5.01,0.00,30.0,29.0,00.0,38.6,32.0,21.1,0000.0,0008.17,0003.04,0002.32
2022-09-21 05:29:00,,0829.5,4.99,0.00,30.1,29.0,00.0,38.7,32.0,21.1,0000.0,0008.13,0002.99,0002.31
2022-09-21 05:30:00,,0829.5,5.01,0.00,30.1,28.5,00.0,38.7,32.0,21.1,0000.0,0007.80,0002.92,0002.30
2022-09-21 05:31:00,,0829.5,4.99,0.00,30.1,27.2,00.0,38.7,31.9,21.1,0000.0,0007.68,0002.88,0002.30
2022-09-21 05:32:00,,0829.6,4.99,0.00,30.0,27.0,00.0,38.6,31.9,21.2,0000.0,0007.67,0002.87,0002.30
2022-09-21 05:33:00,,0829.6,5.01,0.00,30.0,27.1,00.0,38.6,31.7,21.3,0000.0,0007.65,0002.84,0002.28
2022-09-21 05:34:00,,0829.6,5.00,0.00,29.9,27.4,00.0,38.6,31.6,21.4,0000.0,0007.24,0002.78,0002.28
2022-09-21 05:35:00,,0829.6,5.01,0.00,29.9,27.7,00.0,38.6,31.7,21.5,0000.0,0007.15,0002.71,0002.27
2022-09-21 05:36:00,,0829.5,5.00,0.00,29.9,28.0,00.0,38.6,31.7,21.5,0000.0,0007.29,0002.70,0002.26
2022-09-21 05:37:00,,0829.9,5.01,0.00,29.9,28.2,00.0,38.6,31.7,21.6,0000.0,0007.38,0002.73,0002.26
2022-09-21 05:38:00,,0829.7,5.00,0.00,29.9,28.3,00.0,38.6,31.7,21.6,0000.0,0006.01,0002.71,0002.28
2022-09-21 05:39:00,,0829.7,5.01,0.00,29.9,28.5,00.0,38.6,31.8,21.6,0000.0,0005.47,0002.74,0002.30
2022-09-21 05:40:00,,0829.8,4.99,0.00,29.9,28.6,00.0,38.6,31.8,21.5,0000.0,0006.13,0002.74,0002.30
2022-09-21 05:41:00,,0829.8,5.00,0.00,29.9,28.7,00.0,38.6,31.8,21.5,0000.0,0006.34,0002.75,0002.30
2022-09-21 05:42:00,,0829.8,5.00,0.00,30.0,28.8,00.0,38.6,31.9,21.5,0000.0,0006.98,0002.74,0002.30
2022-09-21 05:43:00,,0829.8,4.99,0.00,30.0,28.8,00.0,38.7,31.9,21.5,0000.0,0007.49,0002.72,0002.30
2022-09-21 05:44:00,,0829.9,5.00,0.00,30.0,28.9,00.0,38.7,31.9,21.5,0000.0,0007.52,0002.75,0002.31
2022-09-21 05:45:00,,0829.9,5.01,0.00,30.1,29.0,00.0,38.7,32.0,21.5,0000.0,0008.05,0002.80,0002.30
2022-09-21 05:46:00,,0829.8,4.99,0.00,30.1,28.5,00.0,38.7,32.0,21.5,0000.0,0008.12,0002.90,0002.32
2022-09-21 05:47:00,,0829.8,4.99,0.00,30.1,27.2,00.0,38.7,31.9,21.5,0000.0,0008.24,0002.93,0002.33
2022-09-21 05:48:00,,0829.8,4.99,0.00,30.0,26.9,00.0,38.6,31.9,21.5,0000.0,0008.57,0002.92,0002.33
2022-09-21 05:49:00,,0829.7,5.00,0.00,30.0,27.1,00.0,38.6,31.7,21.7,0000.0,0008.78,0002.98,0002.32
2022-09-21 05:50:00,,0829.7,5.00,0.00,29.9,27.4,00.0,38.6,31.6,21.8,0000.0,0009.33,0002.99,0002.30
2022-09-21 05:51:00,,0829.7,4.99,0.00,29.9,27.7,00.0,38.6,31.6,21.8,0000.0,0009.63,0002.95,0002.29
2022-09-21 05:52:00,,0829.7,5.00,0.00,29.9,27.9,00.0,38.6,31.7,21.8,0000.0,0009.93,0002.90,0002.28
2022-09-21 05:53:00,,0829.8,5.01,0.00,29.9,28.1,00.0,38.6,31.7,21.9,0000.0,0009.86,0002.91,0002.27
2022-09-21 05:54:00,,0829.7,4.99,0.00,29.9,28.3,00.0,38.6,31.7,21.9,0000.0,0009.52,0002.94,0002.26
2022-09-21 05:55:00,,0829.8,5.00,0.00,29.9,28.5,00.0,38.6,31.8,21.9,0000.0,0009.55,0002.91,0002.25
2022-09-21 05:56:00,,0829.8,4.99,0.00,29.9,28.6,00.0,38.6,31.8,21.9,0000.0,0009.31,0002.85,0002.25
2022-09-21 05:57:00,,0829.8,5.00,0.00,29.9,28.7,00.0,38.6,31.8,21.9,0000.0,0009.02,0002.81,0002.23
2022-09-21 05:58:00,,0829.8,5.00,0.00,30.0,28.8,00.0,38.6,31.9,21.9,0000.0,0008.76,0002.76,0002.21
2022-09-21 05:59:00,,0829.8,5.00,0.00,30.0,28.8,00.0,38.7,31.9,21.9,0000.0,0008.35,0002.76,0002.21
